This is the latest recevied weather packets stored in our database for station/object K7NDG. If no packets are shown the sender has not sent any weather packets the latest 10 day(s).
| Time | Temp. | Humidity | Pressure | Rain* | Wind** | Luminosity | Snow |
|---|---|---|---|---|---|---|---|
| 1777908556 | 13.33° C | 84% | 1013 hPa | 0 mm | - | 66 W/m² | - |
| 1777907341 | 13.33° C | 85% | 1012.8 hPa | 0 mm | - | 49 W/m² | - |
| 1777907037 | 13.33° C | 85% | 1012.7 hPa | 0 mm | - | 40 W/m² | - |
| 1777906735 | 13.33° C | 85% | 1012.7 hPa | 0 mm | - | 39 W/m² | - |
| 1777906431 | 13.33° C | 86% | 1012.8 hPa | 0 mm | - | 38 W/m² | - |
| 1777906128 | 12.78° C | 86% | 1012.6 hPa | 0 mm | - | 32 W/m² | - |
| 1777905824 | 12.78° C | 86% | 1012.7 hPa | 0 mm | - | 31 W/m² | - |
| 1777905521 | 12.78° C | 86% | 1012.8 hPa | 0 mm | - | 31 W/m² | - |
| 1777905218 | 12.78° C | 86% | 1012.6 hPa | 0 mm | - | 24 W/m² | - |
| 1777904916 | 12.78° C | 86% | 1012.7 hPa | 0 mm | - | 24 W/m² | - |
| 1777904613 | 12.78° C | 87% | 1012.8 hPa | 0 mm | - | 21 W/m² | - |
| 1777904310 | 12.78° C | 87% | 1012.6 hPa | 0 mm | - | 17 W/m² | - |
| 1777904007 | 12.78° C | 87% | 1012.6 hPa | 0 mm | - | 16 W/m² | - |
| 1777903704 | 12.78° C | 87% | 1012.4 hPa | 0 mm | - | 13 W/m² | - |
| 1777903399 | 12.78° C | 87% | 1012.5 hPa | 0 mm | - | 15 W/m² | - |
| 1777903096 | 12.78° C | 87% | 1012.3 hPa | 0 mm | - | 11 W/m² | - |
| 1777902187 | 12.78° C | 87% | 1012.2 hPa | 0 mm | - | 6 W/m² | - |
| 1777901885 | 12.78° C | 87% | 1012 hPa | 0 mm | - | 5 W/m² | - |
| 1777901582 | 12.78° C | 87% | 1012.2 hPa | 0 mm | - | 2 W/m² | - |
| 1777901279 | 12.78° C | 87% | 1012 hPa | 0 mm | - | 2 W/m² | - |
| 1777900977 | 12.22° C | 87% | 1011.9 hPa | 0 mm | - | 1 W/m² | - |
| 1777900674 | 12.22° C | 87% | 1012 hPa | 0 mm | - | 0 W/m² | - |
| 1777900371 | 12.22° C | 88% | 1012 hPa | 0 mm | - | 0 W/m² | - |
| 1777900068 | 12.22° C | 87% | 1011.9 hPa | 0 mm | - | 0 W/m² | - |
| 1777899764 | 12.22° C | 87% | 1011.6 hPa | 0 mm | - | 0 W/m² | - |
* Rain latest hour (hover to see other rain measurements)
** Current wind speed in m/s (hover to see current wind gust speed)